Weather History for York, NE

Change the Weather History Date:

Friday, November 2, 2012

  Actual Average Record
Temperature  
Mean Temperature 44 °F -  
Max Temperature 55 °F 53 °F 80 °F (1990)
Min Temperature 33 °F 34 °F 6 °F (1991)
Degree Days  
Heating Degree Days 21    
Moisture  
Dew Point 36 °F    
Average Humidity 82    
Maximum Humidity 100    
Minimum Humidity 47    
Precipitation  
Precipitation 0.00 in - - ()
Sea Level Pressure  
Sea Level Pressure 29.97 in    
Wind  
Wind Speed 9 mph (ENE)    
Max Wind Speed 16 mph    
Max Gust Speed 21 mph    
Visibility 9 miles    
Events      
Averages and records for this station are not official NWS values.
T = Trace of Precipitation, MM = Missing Value Source: NWS Daily Summary

Daily Weather History Graph

Daily Weather History Graph

Search for Another Location

Airport:

Trip Planner

Search our weather history database for the weather conditions in past years. The results will help you decide how hot, cold, wet, or windy it might be!

Date:

Astronomy

Nov. 02, 2012 Rise Set
Actual Time 8:02 AM CDT 6:24 PM CDT
Civil Twilight 7:34 AM CDT 6:53 PM CDT
Nautical Twilight 7:01 AM CDT 7:25 PM CDT
Astronomical Twilight 6:29 AM CDT 7:57 PM CDT
Moon 9:12 PM CDT (11/2) 11:25 AM CDT (11/2)
Length of Visible Light 11h 18m
Length of Day
10h 21m
Waning Gibbous, 87% of the Moon is Illuminated
Nov 2
Waning Gibbous
Nov 6
Last Quarter
Nov 13
New
Nov 20
First Quarter
Nov 28
Full

Hourly Weather History & Observations

Time (CDT) Temp. Windchill Dew Point Humidity Pressure Visibility Wind Dir Wind Speed Gust Speed Precip Events Conditions
12:15 AM 37.4 °F 30.8 °F 37.4 °F 100% 29.95 in 2.5 mi East 9.2 mph - N/A   Clear
12:35 AM 37.4 °F 30.8 °F 37.4 °F 100% 29.95 in 2.5 mi East 9.2 mph - N/A   Clear
12:55 AM 37.4 °F 30.8 °F 37.4 °F 100% 29.94 in 3.0 mi East 9.2 mph - N/A   Clear
1:15 AM 37.4 °F 32.1 °F 37.4 °F 100% 29.95 in 3.0 mi East 6.9 mph - N/A   Clear
1:35 AM 37.4 °F 31.4 °F 37.4 °F 100% 29.94 in 3.0 mi East 8.1 mph - N/A   Clear
1:55 AM 37.4 °F 31.4 °F 37.4 °F 100% 29.94 in 3.0 mi East 8.1 mph - N/A   Clear
2:15 AM 37.4 °F 31.4 °F 37.4 °F 100% 29.94 in 4.0 mi ESE 8.1 mph - N/A   Clear
2:55 AM 39.2 °F 33.0 °F 39.2 °F 100% 29.94 in 5.0 mi East 9.2 mph - N/A   Clear
3:15 AM 39.2 °F 32.0 °F 39.2 °F 100% 29.94 in 5.0 mi ESE 11.5 mph - N/A   Clear
3:35 AM 39.2 °F 32.5 °F 39.2 °F 100% 29.93 in 6.0 mi ESE 10.4 mph - N/A   Clear
3:55 AM 37.4 °F 30.3 °F 37.4 °F 100% 29.93 in 6.0 mi ESE 10.4 mph - N/A   Clear
4:15 AM 37.4 °F 29.8 °F 37.4 °F 100% 29.93 in 7.0 mi ESE 11.5 mph - N/A   Clear
4:35 AM 37.4 °F 30.8 °F 37.4 °F 100% 29.93 in 7.0 mi ESE 9.2 mph - N/A   Clear
4:55 AM 37.4 °F 31.4 °F 37.4 °F 100% 29.93 in 6.0 mi ESE 8.1 mph - N/A   Clear
5:15 AM 37.4 °F 30.8 °F 37.4 °F 100% 29.92 in 6.0 mi ESE 9.2 mph - N/A   Clear
5:35 AM 35.6 °F 28.6 °F 35.6 °F 100% 29.93 in 7.0 mi ESE 9.2 mph - N/A   Clear
5:55 AM 35.6 °F 28.6 °F 35.6 °F 100% 29.92 in 8.0 mi ESE 9.2 mph - N/A   Mostly Cloudy
6:35 AM 35.6 °F 28.6 °F 35.6 °F 100% 29.92 in 10.0 mi ESE 9.2 mph - N/A   Partly Cloudy
6:55 AM 35.6 °F 28.6 °F 35.6 °F 100% 29.92 in 10.0 mi ESE 9.2 mph - N/A   Partly Cloudy
7:15 AM 35.6 °F 29.2 °F 35.6 °F 100% 29.91 in 10.0 mi ESE 8.1 mph - N/A   Partly Cloudy
7:35 AM 35.6 °F 28.6 °F 35.6 °F 100% 29.91 in 10.0 mi ESE 9.2 mph - N/A   Scattered Clouds
7:55 AM 35.6 °F 28.6 °F 35.6 °F 100% 29.91 in 10.0 mi ESE 9.2 mph - N/A   Partly Cloudy
8:15 AM 35.6 °F 27.5 °F 35.6 °F 100% 29.91 in 10.0 mi SE 11.5 mph - N/A   Clear
8:35 AM 35.6 °F 27.5 °F 35.6 °F 100% 29.91 in 10.0 mi ESE 11.5 mph - N/A   Clear
8:55 AM 35.6 °F 28.0 °F 35.6 °F 100% 29.92 in 10.0 mi ESE 10.4 mph - N/A   Clear
9:35 AM 39.2 °F 30.8 °F 35.6 °F 87% 29.93 in 10.0 mi ESE 15.0 mph 19.6 mph N/A   Clear
9:55 AM 41.0 °F 33.1 °F 35.6 °F 81% 29.93 in 10.0 mi ESE 15.0 mph 19.6 mph N/A   Clear
10:15 AM 41.0 °F 32.8 °F 35.6 °F 81% 29.94 in 10.0 mi ESE 16.1 mph 20.7 mph N/A   Clear
10:35 AM 42.8 °F 36.2 °F 35.6 °F 76% 29.93 in 10.0 mi SE 12.7 mph - N/A   Clear
11:15 AM 46.4 °F 41.1 °F 35.6 °F 66% 29.94 in 10.0 mi SE 11.5 mph - N/A   Clear
11:35 AM 46.4 °F 41.5 °F 35.6 °F 66% 29.94 in 10.0 mi SE 10.4 mph - N/A   Clear
11:55 AM 48.2 °F - 35.6 °F 62% 29.95 in 10.0 mi ESE 9.2 mph - N/A   Clear
12:15 PM 50.0 °F - 35.6 °F 58% 29.95 in 10.0 mi ESE 10.4 mph - N/A   Clear
12:35 PM 50.0 °F - 35.6 °F 58% 29.93 in 10.0 mi East 11.5 mph - N/A   Clear
12:55 PM 51.8 °F - 35.6 °F 54% 29.93 in 10.0 mi East 8.1 mph - N/A   Clear
1:15 PM 53.6 °F - 35.6 °F 51% 29.92 in 9.0 mi East 10.4 mph - N/A   Clear
1:55 PM 53.6 °F - 35.6 °F 51% 29.93 in 9.0 mi East 4.6 mph - N/A   Clear
2:15 PM 53.6 °F - 35.6 °F 51% 29.93 in 9.0 mi NNE 3.5 mph - N/A   Clear
2:35 PM 55.4 °F - 35.6 °F 47% 29.93 in 10.0 mi NE 8.1 mph - N/A   Clear
2:55 PM 53.6 °F - 35.6 °F 51% 29.93 in 10.0 mi NNE 6.9 mph - N/A   Clear
3:15 PM 53.6 °F - 35.6 °F 51% 29.93 in 10.0 mi NE 9.2 mph - N/A   Clear
4:15 PM 51.8 °F - 35.6 °F 54% 29.95 in 10.0 mi NNE 10.4 mph - N/A   Clear
4:35 PM 53.6 °F - 35.6 °F 51% 29.95 in 10.0 mi NNE 9.2 mph - N/A   Clear
4:55 PM 53.6 °F - 35.6 °F 51% 29.96 in 10.0 mi NNE 8.1 mph - N/A   Clear
5:15 PM 51.8 °F - 35.6 °F 54% 29.97 in 10.0 mi NNE 12.7 mph - N/A   Clear
5:55 PM 48.2 °F - 33.8 °F 58% 29.99 in 10.0 mi North 11.5 mph - N/A   Clear
6:15 PM 46.4 °F 41.5 °F 33.8 °F 62% 29.99 in 10.0 mi North 10.4 mph - N/A   Clear
6:35 PM 44.6 °F 40.2 °F 33.8 °F 66% 30.00 in 10.0 mi North 8.1 mph - N/A   Clear
6:55 PM 44.6 °F 40.7 °F 33.8 °F 66% 30.01 in 10.0 mi North 6.9 mph - N/A   Clear
7:15 PM 41.0 °F 36.4 °F 33.8 °F 76% 30.03 in 10.0 mi North 6.9 mph - N/A   Partly Cloudy
7:55 PM 41.0 °F 35.8 °F 33.8 °F 76% 30.05 in 10.0 mi NNW 8.1 mph - N/A   Scattered Clouds
8:15 PM 41.0 °F 36.4 °F 33.8 °F 76% 30.05 in 10.0 mi NNW 6.9 mph - N/A   Mostly Cloudy
8:35 PM 39.2 °F 35.0 °F 33.8 °F 81% 30.06 in 10.0 mi NNW 5.8 mph - N/A   Partly Cloudy
8:55 PM 39.2 °F 34.2 °F 33.8 °F 81% 30.06 in 10.0 mi North 6.9 mph - N/A   Clear
9:15 PM 39.2 °F 34.2 °F 33.8 °F 81% 30.07 in 10.0 mi North 6.9 mph - N/A   Clear
9:35 PM 39.2 °F 33.6 °F 35.6 °F 87% 30.07 in 10.0 mi North 8.1 mph - N/A   Clear
9:55 PM 39.2 °F 33.6 °F 33.8 °F 81% 30.08 in 10.0 mi North 8.1 mph - N/A   Clear
10:15 PM 37.4 °F 31.4 °F 33.8 °F 87% 30.09 in 10.0 mi North 8.1 mph - N/A   Clear
10:35 PM 37.4 °F 32.1 °F 33.8 °F 87% 30.10 in 10.0 mi North 6.9 mph - N/A   Clear
10:55 PM 35.6 °F 29.2 °F 33.8 °F 93% 30.10 in 10.0 mi NNW 8.1 mph - N/A   Clear
11:15 PM 35.6 °F 29.9 °F 33.8 °F 93% 30.10 in 10.0 mi NNW 6.9 mph - N/A   Clear
11:35 PM 33.8 °F 27.7 °F 33.8 °F 100% 30.11 in 10.0 mi North 6.9 mph - N/A   Clear
11:55 PM 33.8 °F 27.7 °F 32.0 °F 93% 30.11 in 10.0 mi NNW 6.9 mph - N/A   Clear